Regional Weather Roundup
Issued by NWS

Home | Current Version | Previous Version | Text Only | Print | Product List | Glossary On
Versions: 1 2 3 4 5 6 7 8 9 10 11 12 13 14 15 16 17 18 19 20 21 22 23 24 25 26 27 28 29 30 31 32 33 34 35 36 37 38 39 40 41 42 43 44 45 46 47 48 49 50
000
ASUS43 KMKX 231721
RWRWI

WISCONSIN REGIONAL WEATHER ROUNDUP
NATIONAL WEATHER SERVICE MILWAUKEE/SULLIVAN WI
1200 PM CDT WED APR 23 2014

NOTE: "FAIR" INDICATES FEW OR NO CLOUDS BELOW 12,000 FEET WITH NO
SIGNIFICANT WEATHER AND/OR OBSTRUCTIONS TO VISIBILITY.

WIZ001-002-006>008-014>016-023>028-231800-
NORTHWEST WISCONSIN

CITY           SKY/WX    TMP DP  RH WIND       PRES   REMARKS
SUPERIOR ARPT  CLOUDY    42  29  61 NE7       30.14S
ASHLAND        PTSUNNY   47  29  49 NE6       30.15F
HAYWARD        PTSUNNY   50  24  36 VRB6      30.12F
SIREN          CLOUDY    49  25  40 S12       30.11S
RICE LAKE      CLOUDY    46  25  43 SE13      30.14F
LADYSMITH      PTSUNNY   50  27  40 S5        30.15F
EAU CLAIRE     CLOUDY    48  24  39 SE13      30.13F
MENOMONIE      CLOUDY    48  26  41 SE12      30.13S
NEW RICHMOND   CLOUDY    46  27  46 SE10      30.11S
OSCEOLA        CLOUDY    48  28  45 SE14      30.13S
$$

WIZ003>005-009-010-017-018-231800-
NORTH CENTRAL WISCONSIN

CITY           SKY/WX    TMP DP  RH WIND       PRES   REMARKS
WOODRUFF       PTSUNNY   52  23  33 SW6       30.14R
RHINELANDER    CLOUDY    46  22  38 CALM      30.15R
EAGLE RIVER    PTSUNNY   47  18  31 NE3       30.13R
LAND O LAKES   MOSUNNY   47  20  33 E3        30.14R
PHILLIPS       CLOUDY    49  26  40 SE7       30.13S
TOMAHAWK       MOSUNNY   48  22  36 NE5       30.14F
MEDFORD        PTSUNNY   45  27  48 SE5       30.15S
MERRILL        MOSUNNY   49  26  41 E5        30.15S
$$

WIZ029-030-035-036-043>047-231800-
CENTRAL WISCONSIN

CITY           SKY/WX    TMP DP  RH WIND       PRES   REMARKS
WAUSAU         MOSUNNY   47  23  38 S7        30.14S
MOSINEE        SUNNY     46  25  42 SE8       30.17R
MARSHFIELD     CLOUDY    47  25  42 E8        30.15R
STEVENS POINT  PTSUNNY   45  23  42 E8        30.17R
WAUPACA        PTSUNNY   48  21  34 E8        30.18F
WAUTOMA        CLOUDY    48  22  36 VRB3      30.18S
WISC RAPIDS    CLOUDY    49  20  31 SE6       30.17S
CAMP DOUGLAS   CLOUDY    50  25  37 SE8       30.15S
$$

WIZ011>013-019>022-031-037>040-048>050-231800-
NORTHEAST WISCONSIN

CITY           SKY/WX    TMP DP  RH WIND       PRES   REMARKS
ANTIGO         PTSUNNY   45  22  40 SE7       30.16S
STURGEON BAY   MOSUNNY   43  21  42 NW6       30.20S
GREEN BAY      PTSUNNY   45  22  40 NE9       30.20R
MANITOWOC      MOSUNNY   46  22  38 NE7       30.20R
APPLETON       MOSUNNY   45  25  45 E7        30.18F
CLINTONVILLE   PTSUNNY   46  23  39 E8        30.18S
OSHKOSH        MOSUNNY   44  25  47 MISG      30.18F
$$

WIZ032>034-041-042-053>061-231800-
SOUTHWEST WISCONSIN

CITY           SKY/WX    TMP DP  RH WIND       PRES   REMARKS
LA CROSSE      CLOUDY    50  29  44 SW12      30.14R
SPARTA         PTSUNNY   51  23  33 S9        30.15S
VIROQUA        FAIR      48  27  43 SE12      30.14R
BOSCOBEL       PTSUNNY   51  28  41 VRB3      30.16S
PRAIRIE DU CHI CLOUDY    48  28  45 SE9       30.15S
PLATTEVILLE    FAIR      49  28  42 SE8       30.15F
$$

WIZ056-057-062-063-064-067-068-231800-
SOUTH CENTRAL WISCONSIN

CITY           SKY/WX    TMP DP  RH WIND       PRES   REMARKS
BARABOO/DELLS  MOSUNNY   50  23  34 SE6       30.15F
LONE ROCK      MOSUNNY   51  27  39 E10       30.15F
WATERTOWN      MOSUNNY   49  29  45 E7        30.16S
MADISON        PTSUNNY   49  24  37 VRB6      30.16F
MIDDLETON      FAIR      51  22  32 E5        30.16F
MONROE         SUNNY     49  26  39 SE7       30.14F
JANESVILLE     SUNNY     52  25  35 CALM      30.16S
$$

WIZ051-052-058>065-066-070>072-231800-
SOUTHEAST WISCONSIN

CITY           SKY/WX    TMP DP  RH WIND       PRES   REMARKS
MILWAUKEE      PTSUNNY   42  28  57 NE9       30.20R
WAUKESHA       NOT AVBL
MILWAUKEE/TIMM SUNNY     45  19  36 NE7       30.20R
RACINE         SUNNY     44  28  53 NE7       30.21R
BURLINGTON     SUNNY     47  26  45 SE8       30.17S
KENOSHA        SUNNY     45  26  47 E13       30.19R
FOND DU LAC    MOSUNNY   48  28  46 NE7       30.17S
SHEBOYGAN      MOSUNNY   44  25  47 MISG      30.18F
WEST BEND      MOSUNNY   46  23  39 SE3       30.17S
JUNEAU         MOSUNNY   49  21  33 NE3       30.18S
$$

LSZ147-162-231800-
LAKE SUPERIOR

STATION/POSITION TIME  TEMP    WIND        PRES    WAVE
                       AIR SEA DIR/SP/G            HT/PER
                 (UTC) (F)     (DEG/KT/KT) (MB)    (FT/S)
DEVILS ISLAND    1700   37      80/  5/  6 1022.2R
PORT WING        1600   34     340/  2/  3 1021.0S
SAXON HARBOR     1600           CALM  /  3 1021.0
$$

LMZ867-665-643>646-231800-
LAKE MICHIGAN

STATION/POSITION TIME  TEMP    WIND        PRES    WAVE
                       AIR SEA DIR/SP/G            HT/PER
                 (UTC) (F)     (DEG/KT/KT) (MB)    (FT/S)
NORTHPORT PIER   1600   36     320/  6/  8 1022.4F
SISTER BAY       1623   39     350/ 13/ 15   N/A
KEWAUNEE LAKESHO 1600   39      60/  5/  8 1023.1R
SHEBOYGAN LAKESH 1700   36      40/  9/ 10 1023.4R
PORT WASHINGTON  1600   39      60/  8/ 10 1023.0
MILWAUKEE LAKESH 1700   36      50/  7/  8   N/A
KENOSHA   LAKESH 1700   37      50/  8/ 10   N/A
$$

TC  - TEMPERATURE IN CELSIUS
VSB - VISIBILITY IN STATUTE MILES
WCI - WIND CHILL INDEX
HX  - HEAT INDEX




USA.gov is the U.S. government's official web portal to all federal, state and local government web resources and services.